Tracking 31011 objects as of 12-Jul-2025
HD Live streaming from Space Station
objects crossing your sky now

CZ-6A DEB

Track CZ-6A DEB now!
10-day predictions


NORAD ID: 54497
Int'l Code: 2022-151HZ
Perigee: 826.8 km
Apogee: 896.1 km
Inclination: 98.8 °
Period: 102.0 minutes
Semi major axis: 7232 km
RCS: Unknown
Launch date: November 11, 2022
Source: People's Republic of China (PRC)
Launch site: Taiyaun Space Center, China (TSC)

Note: This is SATELLITE DEBRIS
Your satellite tracking list
Your tracking list is empty




NASA's NSSDC Master Catalog

Two Line Element Set (TLE):
1 54497U 22151HZ  25192.48403908  .00000545  00000-0  32142-3 0  9994
2 54497  98.8277 193.8789 0047930 210.5484 149.2894 14.11477936136442
Source of the keplerian elements: AFSPC